Stations météo

réclame
Mon MeteoGroup
Elphin, Grande-Bretagne (99153): Température de l'air & dewpoint: 13.06.2018 19:00:00 - 19.06.2018 19:00:00 (BST)Elphin, Grande-Bretagne (99153): Quantités de précipitations: 13.06.2018 19:00:00 - 19.06.2018 19:00:00 (BST)
Date & Time tt [°C] td [°C] rr [mm]
19.06.2018 19:00:00 9,9 6,5 -
19.06.2018 18:00:00 11,4 5,7 0,0
19.06.2018 17:00:00 12,3 5,5 0,0
19.06.2018 16:00:00 12,7 5,9 0,0
19.06.2018 15:00:00 12,9 6,3 0,0
19.06.2018 14:00:00 12,8 6,8 0,0
19.06.2018 13:00:00 13,0 7,1 0,0
19.06.2018 12:00:00 11,4 7,0 0,0
19.06.2018 11:00:00 11,7 7,6 0,0
19.06.2018 10:00:00 10,6 6,9 0,0
19.06.2018 09:00:00 9,8 6,6 0,0
19.06.2018 08:00:00 9,1 6,8 0,0
19.06.2018 07:00:00 8,7 5,9 0,0
19.06.2018 06:00:00 8,5 6,4 1,2
19.06.2018 05:00:00 8,5 6,3 0,4
19.06.2018 04:00:00 8,3 6,3 0,8
19.06.2018 03:00:00 8,8 5,9 2,0
19.06.2018 02:00:00 8,8 6,3 0,0
19.06.2018 01:00:00 8,9 6,4 -
19.06.2018 00:00:00 8,8 6,9 -
18.06.2018 23:00:00 8,7 6,9 0,8
18.06.2018 22:00:00 9,5 6,4 0,2
18.06.2018 21:00:00 9,3 6,0 0,4
18.06.2018 20:00:00 9,6 5,8 0,6
18.06.2018 19:00:00 10,3 6,1 0,0
18.06.2018 18:00:00 11,2 6,8 0,2
18.06.2018 17:00:00 8,5 6,0 1,0
18.06.2018 16:00:00 9,5 8,7 1,4
18.06.2018 15:00:00 12,9 5,8 0,0
18.06.2018 14:00:00 10,7 6,1 0,0
18.06.2018 13:00:00 12,5 5,4 0,0
18.06.2018 12:00:00 12,3 6,7 0,2
18.06.2018 11:00:00 9,4 7,4 0,2
18.06.2018 10:00:00 11,9 5,4 0,0
18.06.2018 09:00:00 11,3 5,7 0,0
18.06.2018 08:00:00 9,6 7,1 0,0
18.06.2018 07:00:00 10,4 5,7 0,0
18.06.2018 06:00:00 10,2 6,4 0,0
18.06.2018 05:00:00 9,9 6,7 0,0
18.06.2018 04:00:00 10,3 6,1 0,0
18.06.2018 03:00:00 10,5 6,9 0,0
18.06.2018 02:00:00 10,7 7,2 0,0
18.06.2018 01:00:00 11,2 9,1 0,0
18.06.2018 00:00:00 11,7 10,1 0,8
17.06.2018 23:00:00 12,0 11,0 0,4
17.06.2018 22:00:00 12,3 11,2 0,4
17.06.2018 21:00:00 11,8 10,9 0,6
17.06.2018 20:00:00 12,6 10,7 0,2
17.06.2018 19:00:00 13,5 10,5 0,2
17.06.2018 18:00:00 13,7 9,0 0,0
17.06.2018 17:00:00 14,5 8,2 0,0
17.06.2018 16:00:00 15,2 8,3 0,0
17.06.2018 15:00:00 15,0 9,1 0,0
17.06.2018 14:00:00 14,5 9,0 0,0
17.06.2018 13:00:00 13,2 8,7 0,0
17.06.2018 12:00:00 12,9 8,4 0,0
17.06.2018 11:00:00 12,2 7,6 0,0
17.06.2018 10:00:00 13,4 6,6 0,0
17.06.2018 09:00:00 13,8 8,3 0,0
17.06.2018 08:00:00 11,9 8,2 0,0
17.06.2018 07:00:00 10,8 8,7 0,0
17.06.2018 06:00:00 10,0 8,3 0,0
17.06.2018 05:00:00 9,7 8,1 0,0
17.06.2018 04:00:00 9,9 8,5 0,0
17.06.2018 03:00:00 10,1 8,9 0,0
17.06.2018 02:00:00 10,1 8,9 0,0
17.06.2018 01:00:00 10,3 8,9 0,0
17.06.2018 00:00:00 10,0 9,2 0,0
16.06.2018 23:00:00 10,1 9,5 0,0
16.06.2018 22:00:00 10,1 9,1 0,0
16.06.2018 21:00:00 10,8 9,6 0,0
16.06.2018 20:00:00 11,1 10,0 0,0
16.06.2018 19:00:00 10,9 9,7 1,6
16.06.2018 18:00:00 12,4 10,1 0,0
16.06.2018 17:00:00 13,0 10,1 0,0
16.06.2018 16:00:00 13,7 10,8 0,0
16.06.2018 15:00:00 12,9 10,8 0,2
16.06.2018 14:00:00 11,8 10,4 0,6
16.06.2018 13:00:00 11,7 10,8 1,6
16.06.2018 12:00:00 11,6 10,0 0,8
16.06.2018 11:00:00 12,9 9,1 0,0
16.06.2018 10:00:00 12,4 8,2 0,0
16.06.2018 09:00:00 12,0 8,3 0,0
16.06.2018 08:00:00 10,7 7,9 0,0
16.06.2018 07:00:00 9,9 7,5 0,0
16.06.2018 06:00:00 8,7 7,2 0,0
16.06.2018 05:00:00 7,9 6,4 0,0
16.06.2018 04:00:00 8,5 6,8 0,0
16.06.2018 03:00:00 8,2 6,8 0,0
16.06.2018 02:00:00 7,7 6,9 0,0
16.06.2018 01:00:00 8,4 7,3 0,0
16.06.2018 00:00:00 9,2 7,6 0,0
15.06.2018 23:00:00 9,5 8,1 1,0
15.06.2018 22:00:00 10,1 7,8 0,2
15.06.2018 21:00:00 11,4 7,4 0,0
15.06.2018 20:00:00 11,6 7,1 0,0
15.06.2018 19:00:00 12,3 7,7 0,0
15.06.2018 18:00:00 12,7 7,2 0,0
15.06.2018 17:00:00 12,5 7,8 0,0
15.06.2018 16:00:00 14,1 9,2 0,8
15.06.2018 15:00:00 12,8 7,5 0,0
15.06.2018 14:00:00 13,6 9,2 1,0
15.06.2018 13:00:00 11,2 8,3 0,4
15.06.2018 12:00:00 12,8 8,5 0,0
15.06.2018 11:00:00 11,2 8,6 1,0
15.06.2018 10:00:00 9,9 8,5 3,2
15.06.2018 09:00:00 8,7 7,7 3,0
15.06.2018 08:00:00 10,1 8,1 1,8
15.06.2018 07:00:00 9,8 8,2 0,6
15.06.2018 06:00:00 10,3 7,2 0,0
15.06.2018 05:00:00 10,1 6,9 0,0
15.06.2018 04:00:00 9,8 6,8 0,0
15.06.2018 03:00:00 9,7 6,6 0,0
15.06.2018 02:00:00 9,8 6,1 0,0
15.06.2018 01:00:00 9,7 5,9 0,0
15.06.2018 00:00:00 9,5 6,6 0,0
14.06.2018 23:00:00 10,0 6,6 0,0
14.06.2018 22:00:00 9,8 6,7 0,0
14.06.2018 21:00:00 10,2 7,4 0,0
14.06.2018 20:00:00 10,9 5,5 0,0
14.06.2018 19:00:00 10,2 7,2 0,0
14.06.2018 18:00:00 9,3 7,5 0,2
14.06.2018 17:00:00 9,8 7,8 0,4
14.06.2018 16:00:00 11,1 7,9 0,2
14.06.2018 15:00:00 11,2 8,3 0,0
14.06.2018 14:00:00 10,6 8,2 0,0
14.06.2018 13:00:00 9,6 9,0 0,4
14.06.2018 12:00:00 9,5 9,2 2,0
14.06.2018 11:00:00 10,2 10,0 2,6
14.06.2018 10:00:00 10,9 10,4 2,2
14.06.2018 09:00:00 13,5 10,6 0,0
14.06.2018 08:00:00 13,6 10,0 0,0
14.06.2018 07:00:00 13,3 10,1 1,8
14.06.2018 06:00:00 12,9 11,8 3,0
14.06.2018 05:00:00 13,8 11,7 1,0
14.06.2018 04:00:00 14,3 12,8 1,8
14.06.2018 03:00:00 15,6 13,1 0,2
14.06.2018 02:00:00 13,9 13,0 0,6
14.06.2018 01:00:00 13,4 12,4 2,2
14.06.2018 00:00:00 11,9 11,3 0,8
13.06.2018 23:00:00 11,5 11,0 2,2
13.06.2018 22:00:00 11,7 11,1 1,2
13.06.2018 21:00:00 11,9 11,4 1,8
13.06.2018 20:00:00 12,2 11,6 1,8
13.06.2018 19:00:00 12,7 10,8 2,2

tt = Température de l'air
td = dewpoint
rr = Quantités de précipitations

stations d'obs. à proximité